Date,TemperatureHighF,TemperatureAvgF,TemperatureLowF,DewpointHighF,DewpointAvgF,DewpointLowF,HumidityHigh,HumidityAvg,HumidityLow,PressureMaxIn,PressureMinIn,WindSpeedMaxMPH,WindSpeedAvgMPH,GustSpeedMaxMPH,PrecipitationSumIn
2013-5-3,37,36,35,35,33,32,92,89,86,29.99,29.88,11,2,11,1.81
2013-5-4,68,54,37,50,44,35,93,72,36,30.02,29.79,7,0,7,0.55
2013-5-5,69,56,47,51,46,41,88,70,44,30.05,29.96,11,2,11,0.00
2013-5-6,81,62,50,47,42,30,84,53,20,30.08,29.96,8,1,8,0.00
2013-5-7,92,67,45,48,37,23,82,44,9,30.05,29.93,10,0,10,0.00
2013-5-8,90,66,48,51,43,30,79,50,13,29.99,29.91,12,0,12,0.04
2013-5-9,74,64,59,58,53,47,82,68,42,29.93,29.79,8,0,8,1.42
2013-5-10,70,56,46,50,44,37,85,66,34,29.99,29.85,13,1,13,0.08
2013-5-11,62,53,40,46,25,7,83,40,14,30.17,29.93,17,4,17,0.00
2013-5-12,67,50,32,25,18,8,57,32,12,30.23,30.11,12,1,12,0.00
2013-5-13,83,61,34,39,28,20,78,37,11,30.17,29.88,16,2,16,0.00
2013-5-14,100,78,52,53,42,35,74,33,16,29.88,29.64,17,2,17,0.00
2013-5-15,80,77,74,36,34,33,23,21,20,29.76,29.73,20,5,20,0.00
2013-5-19,64,63,63,58,57,57,81,81,80,29.76,29.64,0,0,0,0.32
2013-5-20,87,72,60,58,53,46,82,55,28,29.73,29.55,0,0,0,0.83
2013-5-21,83,69,58,58,48,40,83,51,24,29.70,29.61,0,0,0,0.00
2013-5-22,70,61,54,53,46,40,75,59,36,29.85,29.67,0,0,0,0.08
2013-5-23,75,62,55,49,40,30,79,48,21,30.23,29.85,0,0,0,0.00
2013-5-24,76,62,45,44,36,30,75,41,22,30.38,30.20,0,0,0,0.08
2013-5-25,60,56,51,50,44,38,86,66,49,30.32,30.14,0,0,0,4.88
2013-5-26,72,60,52,56,48,43,84,67,42,30.17,29.91,12,0,12,2.13
2013-5-27,77,66,59,60,56,51,85,73,42,29.99,29.70,11,0,11,1.10
2013-5-28,88,70,60,65,58,45,84,68,36,29.88,29.61,17,1,17,10.83
2013-5-29,91,75,61,63,58,54,85,59,32,29.85,29.70,17,3,17,0.55
2013-5-30,88,72,61,61,53,48,79,54,29,29.73,29.58,22,4,22,0.83
2013-5-31,82,69,59,60,54,46,82,60,32,29.76,29.64,16,2,16,0.04